Time,TemperatureF,DewpointF,PressureIn,WindDirection,WindDirectionDegrees,WindSpeedMPH,WindSpeedGustMPH,Humidity,HourlyPrecipIn,Conditions,Clouds,dailyrainin,SoftwareType,DateUTC
2013-01-05 00:06:00,21.8,15.0,30.12,SW,225,0.0,1.1,75,0.00,,,0.00,WUHU216HW,2013-01-05 07:06:00,
2013-01-05 00:16:00,21.6,14.9,30.12,WSW,248,0.0,0.4,75,0.00,,,0.00,WUHU216HW,2013-01-05 07:16:00,
2013-01-05 00:27:00,21.4,14.7,30.13,ESE,113,0.0,0.2,75,0.00,,,0.00,WUHU216HW,2013-01-05 07:27:00,
2013-01-05 00:37:00,21.2,14.2,30.12,SE,135,0.7,1.3,74,0.00,,,0.00,WUHU216HW,2013-01-05 07:37:00,
2013-01-05 00:47:00,20.7,13.7,30.12,ESE,113,0.4,1.1,74,0.00,,,0.00,WUHU216HW,2013-01-05 07:47:00,
2013-01-05 00:57:00,20.5,13.8,30.13,SSE,158,0.2,0.2,75,0.00,,,0.00,WUHU216HW,2013-01-05 07:57:00,
2013-01-05 01:07:00,20.5,13.8,30.13,SSE,158,0.4,0.9,75,0.00,,,0.00,WUHU216HW,2013-01-05 08:07:00,
2013-01-05 01:17:00,20.5,13.8,30.12,South,180,0.7,1.8,75,0.00,,,0.00,WUHU216HW,2013-01-05 08:17:00,
2013-01-05 01:27:00,20.5,13.8,30.12,SSW,203,0.7,1.8,75,0.00,,,0.00,WUHU216HW,2013-01-05 08:27:00,
2013-01-05 01:37:00,20.7,14.2,30.13,SSW,203,0.7,1.6,76,0.00,,,0.00,WUHU216HW,2013-01-05 08:37:00,
2013-01-05 01:48:00,21.1,14.6,30.13,SE,135,0.4,1.1,76,0.00,,,0.00,WUHU216HW,2013-01-05 08:48:00,
2013-01-05 01:58:00,21.2,14.8,30.13,SE,135,0.0,0.0,76,0.00,,,0.00,WUHU216HW,2013-01-05 08:58:00,
2013-01-05 02:08:00,21.2,15.1,30.13,SSE,158,0.7,1.1,77,0.00,,,0.00,WUHU216HW,2013-01-05 09:08:00,
2013-01-05 02:18:00,21.4,15.3,30.13,SSE,158,0.0,0.0,77,0.00,,,0.00,WUHU216HW,2013-01-05 09:18:00,
2013-01-05 02:28:00,21.4,15.3,30.13,SSE,158,0.4,0.9,77,0.00,,,0.00,WUHU216HW,2013-01-05 09:28:00,
2013-01-05 02:38:00,21.6,15.5,30.13,SSE,158,0.0,1.1,77,0.00,,,0.00,WUHU216HW,2013-01-05 09:38:00,
2013-01-05 02:48:00,21.4,15.3,30.14,NW,315,1.8,1.8,77,0.00,,,0.00,WUHU216HW,2013-01-05 09:48:00,
2013-01-05 02:58:00,20.9,14.4,30.14,NNW,338,0.4,0.7,76,0.00,,,0.00,WUHU216HW,2013-01-05 09:58:00,
2013-01-05 03:08:00,20.5,14.0,30.13,SE,135,0.7,1.1,76,0.00,,,0.00,WUHU216HW,2013-01-05 10:08:00,
2013-01-05 03:19:00,20.2,13.7,30.14,SE,135,0.9,0.9,76,0.00,,,0.00,WUHU216HW,2013-01-05 10:19:00,
2013-01-05 03:29:00,20.2,14.1,30.13,ESE,113,0.7,0.7,77,0.00,,,0.00,WUHU216HW,2013-01-05 10:29:00,
2013-01-05 03:39:00,20.0,13.9,30.14,SE,135,0.0,0.9,77,0.00,,,0.00,WUHU216HW,2013-01-05 10:39:00,
2013-01-05 03:49:00,20.0,13.9,30.13,SE,135,0.0,0.0,77,0.00,,,0.00,WUHU216HW,2013-01-05 10:49:00,
2013-01-05 03:59:00,19.8,13.7,30.14,SE,135,0.0,0.0,77,0.00,,,0.00,WUHU216HW,2013-01-05 10:59:00,
2013-01-05 04:09:00,19.6,13.5,30.14,SE,135,0.0,0.2,77,0.00,,,0.00,WUHU216HW,2013-01-05 11:09:00,
2013-01-05 04:19:00,19.4,13.3,30.14,NNE,23,0.0,0.4,77,0.00,,,0.00,WUHU216HW,2013-01-05 11:19:00,
2013-01-05 04:29:00,19.3,13.2,30.14,WSW,248,0.7,0.7,77,0.00,,,0.00,WUHU216HW,2013-01-05 11:29:00,
2013-01-05 04:39:00,19.1,13.2,30.14,WSW,248,1.1,1.8,78,0.00,,,0.00,WUHU216HW,2013-01-05 11:39:00,
2013-01-05 04:49:00,19.1,13.2,30.14,NE,45,0.0,0.7,78,0.00,,,0.00,WUHU216HW,2013-01-05 11:49:00,
2013-01-05 04:59:00,18.9,13.1,30.14,SE,135,0.0,0.4,78,0.00,,,0.00,WUHU216HW,2013-01-05 11:59:00,
2013-01-05 05:09:00,18.9,13.1,30.14,SE,135,0.0,0.4,78,0.00,,,0.00,WUHU216HW,2013-01-05 12:09:00,
2013-01-05 05:19:00,18.9,13.1,30.14,SE,135,0.0,0.0,78,0.00,,,0.00,WUHU216HW,2013-01-05 12:19:00,
2013-01-05 05:29:00,19.1,13.2,30.14,SW,225,0.4,0.7,78,0.00,,,0.00,WUHU216HW,2013-01-05 12:29:00,
2013-01-05 05:39:00,18.9,13.1,30.14,SSE,158,0.0,1.1,78,0.00,,,0.00,WUHU216HW,2013-01-05 12:39:00,
2013-01-05 05:49:00,18.9,13.1,30.14,SSE,158,0.2,0.9,78,0.00,,,0.00,WUHU216HW,2013-01-05 12:49:00,
2013-01-05 05:59:00,18.7,12.9,30.14,SE,135,0.0,0.4,78,0.00,,,0.00,WUHU216HW,2013-01-05 12:59:00,
2013-01-05 06:09:00,18.5,12.7,30.15,South,180,0.0,0.0,78,0.00,,,0.00,WUHU216HW,2013-01-05 13:09:00,
2013-01-05 06:19:00,18.4,12.5,30.15,West,270,0.0,0.2,78,0.00,,,0.00,WUHU216HW,2013-01-05 13:19:00,
2013-01-05 06:30:00,18.0,12.3,30.15,West,270,0.0,0.0,78,0.00,,,0.00,WUHU216HW,2013-01-05 13:30:00,
2013-01-05 06:40:00,17.6,11.9,30.15,SW,225,0.2,0.2,78,0.00,,,0.00,WUHU216HW,2013-01-05 13:40:00,
2013-01-05 06:50:00,17.3,11.5,30.15,SW,225,0.4,0.4,78,0.00,,,0.00,WUHU216HW,2013-01-05 13:50:00,
2013-01-05 07:00:00,17.3,11.5,30.15,SW,225,0.4,0.4,78,0.00,,,0.00,WUHU216HW,2013-01-05 14:00:00,
2013-01-05 07:10:00,17.3,11.8,30.14,SSW,203,0.4,0.4,79,0.00,,,0.00,WUHU216HW,2013-01-05 14:10:00,
2013-01-05 07:20:00,17.3,11.8,30.14,SSE,158,0.0,0.7,79,0.00,,,0.00,WUHU216HW,2013-01-05 14:20:00,
2013-01-05 07:30:00,17.3,11.8,30.15,SSW,203,0.4,0.4,79,0.00,,,0.00,WUHU216HW,2013-01-05 14:30:00,
2013-01-05 07:40:00,17.1,11.6,30.15,SSW,203,0.0,0.4,79,0.00,,,0.00,WUHU216HW,2013-01-05 14:40:00,
2013-01-05 07:50:00,16.9,11.8,30.15,SSW,203,0.4,0.4,80,0.00,,,0.00,WUHU216HW,2013-01-05 14:50:00,
2013-01-05 08:00:00,16.9,11.8,30.15,North,0,0.0,0.4,80,0.00,,,0.00,WUHU216HW,2013-01-05 15:00:00,
2013-01-05 08:10:00,16.7,11.6,30.15,NNE,23,0.0,0.0,80,0.00,,,0.00,WUHU216HW,2013-01-05 15:10:00,
2013-01-05 08:21:00,16.7,11.4,30.15,North,0,0.0,0.0,79,0.00,,,0.00,WUHU216HW,2013-01-05 15:21:00,
2013-01-05 08:31:00,16.9,11.5,30.15,NW,315,0.0,0.0,79,0.00,,,0.00,WUHU216HW,2013-01-05 15:31:00,
2013-01-05 08:41:00,16.9,11.5,30.15,NE,45,0.0,0.4,79,0.00,,,0.00,WUHU216HW,2013-01-05 15:41:00,
2013-01-05 08:51:00,17.1,11.6,30.15,NE,45,0.0,0.0,79,0.00,,,0.00,WUHU216HW,2013-01-05 15:51:00,
2013-01-05 09:01:00,17.3,11.8,30.15,NE,45,0.4,0.7,79,0.00,,,0.00,WUHU216HW,2013-01-05 16:01:00,
2013-01-05 09:11:00,17.5,12.2,30.15,NE,45,0.0,0.4,80,0.00,,,0.00,WUHU216HW,2013-01-05 16:11:00,
2013-01-05 09:21:00,17.8,12.6,30.15,NE,45,0.0,0.0,80,0.00,,,0.00,WUHU216HW,2013-01-05 16:21:00,
2013-01-05 09:31:00,18.0,12.8,30.15,NE,45,0.0,0.0,80,0.00,,,0.00,WUHU216HW,2013-01-05 16:31:00,
2013-01-05 09:41:00,18.4,13.4,30.15,NE,45,0.0,0.0,81,0.00,,,0.00,WUHU216HW,2013-01-05 16:41:00,
2013-01-05 09:51:00,18.4,13.4,30.15,North,0,0.0,0.4,81,0.00,,,0.00,WUHU216HW,2013-01-05 16:51:00,
2013-01-05 10:01:00,18.7,13.8,30.15,North,0,0.0,0.0,81,0.00,,,0.00,WUHU216HW,2013-01-05 17:01:00,
2013-01-05 10:11:00,18.9,14.0,30.15,NNW,338,0.4,0.4,81,0.00,,,0.00,WUHU216HW,2013-01-05 17:11:00,
2013-01-05 10:21:00,19.1,14.1,30.15,NNW,338,0.0,0.2,81,0.00,,,0.00,WUHU216HW,2013-01-05 17:21:00,
2013-01-05 10:31:00,19.1,14.1,30.15,NNW,338,0.2,0.4,81,0.00,,,0.00,WUHU216HW,2013-01-05 17:31:00,
2013-01-05 10:41:00,19.3,14.3,30.15,WNW,293,0.0,0.4,81,0.00,,,0.00,WUHU216HW,2013-01-05 17:41:00,
2013-01-05 10:51:00,19.6,14.7,30.15,NNW,338,0.4,0.4,81,0.00,,,0.00,WUHU216HW,2013-01-05 17:51:00,
2013-01-05 11:01:00,19.8,14.9,30.15,NNW,338,0.0,0.9,81,0.00,,,0.00,WUHU216HW,2013-01-05 18:01:00,
2013-01-05 11:11:00,20.2,15.2,30.14,North,0,0.2,0.4,81,0.00,,,0.00,WUHU216HW,2013-01-05 18:11:00,
2013-01-05 11:21:00,20.7,15.8,30.14,North,0,0.2,0.2,81,0.00,,,0.00,WUHU216HW,2013-01-05 18:21:00,
2013-01-05 11:31:00,21.2,16.0,30.13,North,0,0.0,0.7,80,0.00,,,0.00,WUHU216HW,2013-01-05 18:31:00,
2013-01-05 11:41:00,22.0,16.7,30.13,North,0,0.4,0.4,80,0.00,,,0.00,WUHU216HW,2013-01-05 18:41:00,
2013-01-05 11:51:00,22.3,16.8,30.12,North,0,0.9,1.3,79,0.00,,,0.00,WUHU216HW,2013-01-05 18:51:00,
2013-01-05 12:01:00,22.1,16.7,30.12,North,0,0.2,1.3,79,0.00,,,0.00,WUHU216HW,2013-01-05 19:01:00,
2013-01-05 12:12:00,22.5,17.0,30.11,NNE,23,1.8,1.8,79,0.00,,,0.00,WUHU216HW,2013-01-05 19:12:00,
2013-01-05 12:22:00,23.0,17.6,30.11,NNW,338,1.3,2.0,79,0.00,,,0.00,WUHU216HW,2013-01-05 19:22:00,
2013-01-05 12:32:00,23.2,17.4,30.10,NNW,338,1.1,1.8,78,0.00,,,0.00,WUHU216HW,2013-01-05 19:32:00,
2013-01-05 12:42:00,23.4,17.6,30.10,North,0,1.3,2.9,78,0.00,,,0.00,WUHU216HW,2013-01-05 19:42:00,
2013-01-05 12:52:00,23.8,18.3,30.09,North,0,1.1,2.0,79,0.00,,,0.00,WUHU216HW,2013-01-05 19:52:00,
2013-01-05 13:02:00,24.1,18.9,30.08,North,0,2.2,2.5,80,0.00,,,0.00,WUHU216HW,2013-01-05 20:02:00,
2013-01-05 13:12:00,24.5,18.9,30.08,North,0,0.9,2.2,79,0.00,,,0.00,WUHU216HW,2013-01-05 20:12:00,
2013-01-05 13:22:00,24.8,19.3,30.07,NNE,23,1.1,1.6,79,0.00,,,0.00,WUHU216HW,2013-01-05 20:22:00,
2013-01-05 13:32:00,25.4,19.8,30.07,North,0,0.7,1.1,79,0.00,,,0.00,WUHU216HW,2013-01-05 20:32:00,
2013-01-05 13:42:00,25.7,19.8,30.06,NNW,338,0.9,2.0,78,0.00,,,0.00,WUHU216HW,2013-01-05 20:42:00,
2013-01-05 13:52:00,26.1,20.2,30.05,North,0,1.1,1.8,78,0.00,,,0.00,WUHU216HW,2013-01-05 20:52:00,
2013-01-05 14:02:00,26.3,20.0,30.05,NNW,338,0.9,1.8,77,0.00,,,0.00,WUHU216HW,2013-01-05 21:02:00,
2013-01-05 14:12:00,26.3,20.0,30.05,NNE,23,2.0,2.0,77,0.00,,,0.00,WUHU216HW,2013-01-05 21:12:00,
2013-01-05 14:22:00,26.5,20.2,30.05,North,0,1.3,2.0,77,0.00,,,0.00,WUHU216HW,2013-01-05 21:22:00,
2013-01-05 14:32:00,26.5,20.2,30.04,NW,315,1.3,2.5,77,0.00,,,0.00,WUHU216HW,2013-01-05 21:32:00,
2013-01-05 14:42:00,26.5,20.2,30.04,WNW,293,2.0,2.9,77,0.00,,,0.00,WUHU216HW,2013-01-05 21:42:00,
2013-01-05 14:52:00,26.1,20.2,30.04,NW,315,1.6,3.6,78,0.00,,,0.00,WUHU216HW,2013-01-05 21:52:00,
2013-01-05 15:02:00,26.3,20.4,30.04,NW,315,1.1,2.0,78,0.00,,,0.00,WUHU216HW,2013-01-05 22:02:00,
2013-01-05 15:12:00,26.1,20.4,30.03,NW,315,1.8,1.8,79,0.00,,,0.00,WUHU216HW,2013-01-05 22:12:00,
2013-01-05 15:22:00,26.3,20.6,30.03,NNW,338,0.9,1.8,79,0.00,,,0.00,WUHU216HW,2013-01-05 22:22:00,
2013-01-05 15:32:00,26.5,20.8,30.03,NW,315,0.9,0.9,79,0.00,,,0.00,WUHU216HW,2013-01-05 22:32:00,
2013-01-05 15:42:00,26.5,20.4,30.03,NNW,338,0.2,1.1,78,0.00,,,0.00,WUHU216HW,2013-01-05 22:42:00,
2013-01-05 15:52:00,26.5,20.4,30.02,NNW,338,0.4,1.1,78,0.00,,,0.00,WUHU216HW,2013-01-05 22:52:00,
2013-01-05 16:02:00,25.9,20.0,30.02,North,0,0.4,0.9,78,0.00,,,0.00,WUHU216HW,2013-01-05 23:02:00,
2013-01-05 16:12:00,25.9,20.0,30.02,North,0,0.4,0.7,78,0.00,,,0.00,WUHU216HW,2013-01-05 23:12:00,
2013-01-05 16:22:00,25.7,19.8,30.02,North,0,0.9,1.8,78,0.00,,,0.00,WUHU216HW,2013-01-05 23:22:00,
2013-01-05 16:32:00,25.4,19.4,30.02,North,0,0.9,1.3,78,0.00,,,0.00,WUHU216HW,2013-01-05 23:32:00,
2013-01-05 16:43:00,25.2,19.6,30.02,North,0,0.9,1.3,79,0.00,,,0.00,WUHU216HW,2013-01-05 23:43:00,
2013-01-05 16:53:00,24.8,19.3,30.02,North,0,0.7,1.6,79,0.00,,,0.00,WUHU216HW,2013-01-05 23:53:00,
2013-01-05 17:03:00,24.3,18.7,30.02,North,0,0.4,1.1,79,0.00,,,0.00,WUHU216HW,2013-01-06 00:03:00,
2013-01-05 17:13:00,24.1,18.9,30.02,NNW,338,0.0,0.7,80,0.00,,,0.00,WUHU216HW,2013-01-06 00:13:00,
2013-01-05 17:23:00,24.7,19.4,30.02,ENE,68,0.4,0.7,80,0.00,,,0.00,WUHU216HW,2013-01-06 00:23:00,
2013-01-05 17:33:00,25.0,19.4,30.02,ENE,68,0.0,0.7,79,0.00,,,0.00,WUHU216HW,2013-01-06 00:33:00,
2013-01-05 17:43:00,25.6,20.0,30.02,East,90,1.6,1.6,79,0.00,,,0.00,WUHU216HW,2013-01-06 00:43:00,
2013-01-05 17:53:00,25.7,20.1,30.02,ENE,68,0.7,1.8,79,0.00,,,0.00,WUHU216HW,2013-01-06 00:53:00,
2013-01-05 18:03:00,26.1,20.2,30.02,SSE,158,0.4,0.4,78,0.00,,,0.00,WUHU216HW,2013-01-06 01:03:00,
2013-01-05 18:13:00,26.3,20.4,30.01,East,90,0.0,1.3,78,0.00,,,0.00,WUHU216HW,2013-01-06 01:13:00,
2013-01-05 18:23:00,25.7,19.8,30.01,WSW,248,0.4,1.6,78,0.00,,,0.00,WUHU216HW,2013-01-06 01:23:00,
2013-01-05 18:33:00,26.3,20.4,30.01,WSW,248,0.0,0.4,78,0.00,,,0.00,WUHU216HW,2013-01-06 01:33:00,
2013-01-05 18:43:00,26.5,20.2,30.01,WSW,248,0.2,0.2,77,0.00,,,0.00,WUHU216HW,2013-01-06 01:43:00,
2013-01-05 18:53:00,26.8,20.5,30.01,WSW,248,0.0,0.9,77,0.00,,,0.00,WUHU216HW,2013-01-06 01:53:00,
2013-01-05 19:04:00,27.0,20.7,30.00,South,180,0.0,0.0,77,0.00,,,0.00,WUHU216HW,2013-01-06 02:04:00,
2013-01-05 19:14:00,27.0,20.7,30.00,South,180,0.0,0.0,77,0.00,,,0.00,WUHU216HW,2013-01-06 02:14:00,
2013-01-05 19:24:00,27.2,20.5,30.00,South,180,0.0,0.4,76,0.00,,,0.00,WUHU216HW,2013-01-06 02:24:00,
2013-01-05 19:34:00,27.4,20.7,30.00,South,180,0.0,0.0,76,0.00,,,0.00,WUHU216HW,2013-01-06 02:34:00,
2013-01-05 19:44:00,27.7,21.1,30.00,South,180,0.0,0.0,76,0.00,,,0.00,WUHU216HW,2013-01-06 02:44:00,
2013-01-05 19:54:00,27.9,21.2,30.00,South,180,0.0,0.0,76,0.00,,,0.00,WUHU216HW,2013-01-06 02:54:00,
2013-01-05 20:04:00,27.9,21.0,29.99,SE,135,0.7,0.7,75,0.00,,,0.00,WUHU216HW,2013-01-06 03:04:00,
2013-01-05 20:14:00,27.7,20.8,29.99,SE,135,0.0,0.4,75,0.00,,,0.00,WUHU216HW,2013-01-06 03:14:00,
2013-01-05 20:24:00,27.9,21.0,29.99,SE,135,0.4,0.4,75,0.00,,,0.00,WUHU216HW,2013-01-06 03:24:00,
2013-01-05 20:34:00,28.1,21.2,29.99,South,180,0.4,0.4,75,0.00,,,0.00,WUHU216HW,2013-01-06 03:34:00,
2013-01-05 20:44:00,28.3,21.3,29.99,SSE,158,0.7,0.9,75,0.00,,,0.00,WUHU216HW,2013-01-06 03:44:00,
2013-01-05 20:54:00,28.1,21.2,29.99,SSW,203,0.4,0.9,75,0.00,,,0.00,WUHU216HW,2013-01-06 03:54:00,
2013-01-05 21:04:00,28.3,21.3,29.98,SSW,203,0.0,0.4,75,0.00,,,0.00,WUHU216HW,2013-01-06 04:04:00,
2013-01-05 21:14:00,28.1,21.2,29.98,SSW,203,0.0,0.0,75,0.00,,,0.00,WUHU216HW,2013-01-06 04:14:00,
2013-01-05 21:24:00,27.9,21.0,29.98,SE,135,0.4,0.9,75,0.00,,,0.00,WUHU216HW,2013-01-06 04:24:00,
2013-01-05 21:34:00,27.9,21.2,29.98,South,180,2.0,2.7,76,0.00,,,0.00,WUHU216HW,2013-01-06 04:34:00,
2013-01-05 21:44:00,28.1,21.4,29.98,SSW,203,3.1,3.1,76,0.00,,,0.00,WUHU216HW,2013-01-06 04:44:00,
2013-01-05 21:54:00,27.7,21.1,29.97,SSE,158,3.4,4.0,76,0.00,,,0.00,WUHU216HW,2013-01-06 04:54:00,
2013-01-05 22:04:00,27.7,21.1,29.97,SSE,158,1.1,2.7,76,0.00,,,0.00,WUHU216HW,2013-01-06 05:04:00,
2013-01-05 22:14:00,27.5,20.9,29.97,South,180,3.4,5.1,76,0.00,,,0.00,WUHU216HW,2013-01-06 05:14:00,
2013-01-05 22:24:00,27.5,20.9,29.97,SSE,158,2.9,4.0,76,0.00,,,0.00,WUHU216HW,2013-01-06 05:24:00,
2013-01-05 22:34:00,27.4,20.7,29.97,SSE,158,3.8,4.5,76,0.00,,,0.00,WUHU216HW,2013-01-06 05:34:00,
2013-01-05 22:44:00,27.4,20.7,29.96,SSE,158,2.5,4.3,76,0.00,,,0.00,WUHU216HW,2013-01-06 05:44:00,
2013-01-05 22:55:00,27.0,20.3,29.96,SSE,158,1.6,5.4,76,0.00,,,0.00,WUHU216HW,2013-01-06 05:55:00,
2013-01-05 23:05:00,27.2,20.5,29.96,SW,225,1.1,3.4,76,0.00,,,0.00,WUHU216HW,2013-01-06 06:05:00,
2013-01-05 23:15:00,27.2,20.5,29.96,SSE,158,3.4,4.7,76,0.00,,,0.00,WUHU216HW,2013-01-06 06:15:00,
2013-01-05 23:25:00,26.6,20.0,29.96,South,180,4.0,4.0,76,0.00,,,0.00,WUHU216HW,2013-01-06 06:25:00,
2013-01-05 23:35:00,25.7,19.5,29.96,SSW,203,4.3,4.5,77,0.00,,,0.00,WUHU216HW,2013-01-06 06:35:00,
2013-01-05 23:45:00,25.2,19.0,29.96,SSW,203,4.0,5.1,77,0.00,,,0.00,WUHU216HW,2013-01-06 06:45:00,
2013-01-05 23:55:00,25.0,18.8,29.96,SSW,203,0.4,3.4,77,0.00,,,0.00,WUHU216HW,2013-01-06 06:55:00,